This is the latest recevied weather packets stored in our database for station/object KC5DAQ-22. If no packets are shown the sender has not sent any weather packets the latest 10 day(s).
| Time | Temp. | Humidity | Pressure | Rain* | Wind** | Luminosity | Snow |
|---|---|---|---|---|---|---|---|
| 1777687810 | 13.89° C | 95% | 1012.3 hPa | 1.52 mm | - | 0 W/m² | - |
| 1777687752 | 13.89° C | 95% | 1012.3 hPa | 1.52 mm | - | 0 W/m² | - |
| 1777687691 | 13.89° C | 95% | 1012.2 hPa | 1.52 mm | - | 0 W/m² | - |
| 1777687630 | 13.89° C | 95% | 1012.2 hPa | 1.52 mm | - | 0 W/m² | - |
| 1777687570 | 13.89° C | 95% | 1012.3 hPa | 1.78 mm | - | 0 W/m² | - |
| 1777687512 | 13.89° C | 95% | 1012.2 hPa | 1.78 mm | - | 0 W/m² | - |
| 1777687450 | 13.89° C | 95% | 1012.2 hPa | 1.78 mm | - | 0 W/m² | - |
| 1777687391 | 13.89° C | 95% | 1012.2 hPa | 1.78 mm | - | 0 W/m² | - |
| 1777687329 | 13.89° C | 95% | 1012.2 hPa | 1.78 mm | - | 0 W/m² | - |
| 1777687270 | 13.89° C | 96% | 1012.3 hPa | 1.78 mm | - | 0 W/m² | - |
| 1777687209 | 13.89° C | 96% | 1012.2 hPa | 1.78 mm | - | 0 W/m² | - |
| 1777687150 | 13.89° C | 96% | 1012.3 hPa | 1.78 mm | - | 0 W/m² | - |
| 1777687091 | 13.89° C | 96% | 1012.1 hPa | 1.78 mm | - | 0 W/m² | - |
| 1777687030 | 13.89° C | 96% | 1012.1 hPa | 1.78 mm | - | 0 W/m² | - |
| 1777686970 | 13.89° C | 95% | 1012.1 hPa | 1.78 mm | - | 0 W/m² | - |
| 1777686910 | 13.89° C | 95% | 1012.1 hPa | 2.03 mm | - | 0 W/m² | - |
| 1777686850 | 13.89° C | 95% | 1012 hPa | 2.03 mm | - | 0 W/m² | - |
| 1777686789 | 13.89° C | 95% | 1012 hPa | 2.03 mm | - | 0 W/m² | - |
| 1777686730 | 13.89° C | 95% | 1012.1 hPa | 2.29 mm | - | 0 W/m² | - |
| 1777686670 | 13.89° C | 95% | 1012.1 hPa | 2.29 mm | - | 0 W/m² | - |
| 1777686609 | 13.89° C | 95% | 1012 hPa | 2.03 mm | - | 0 W/m² | - |
| 1777686549 | 14.44° C | 95% | 1011.9 hPa | 2.29 mm | - | 0 W/m² | - |
| 1777686491 | 14.44° C | 95% | 1011.9 hPa | 2.29 mm | - | 0 W/m² | - |
| 1777686430 | 14.44° C | 95% | 1011.8 hPa | 2.54 mm | - | 0 W/m² | - |
| 1777686372 | 14.44° C | 95% | 1011.8 hPa | 2.54 mm | - | 0 W/m² | - |
* Rain latest hour (hover to see other rain measurements)
** Current wind speed in m/s (hover to see current wind gust speed)